Regional Weather Roundup
Issued by NWS

Home | Current Version | Previous Version | Graphics & Text | Print | Product List | Glossary On
Versions: 1 2 3 4 5 6 7 8 9 10 11 12 13 14 15 16 17 18 19 20 21 22 23 24 25 26 27 28 29 30 31 32 33 34 35 36 37 38 39 40 41 42 43 44 45 46 47 48 49 50
000
ASUS43 KOAX 300602
RWRNE

WEATHER ROUNDUP FOR NEBRASKA
NATIONAL WEATHER SERVICE OMAHA NE
100 AM CDT SAT JUL 30 2016

NOTES: SATELLITE DATA IS BEING USED TO AUGMENT CLOUD COVER ABOVE
       12000 FEET.
       "FAIR" INDICATES FEW OR NO CLOUDS BELOW 12,000 FEET WITH NO
       SIGNIFICANT WEATHER AND/OR OBSTRUCTIONS TO VISIBILITY.

  * THESE STATIONS DO NOT REPORT WEATHER SUCH AS RAIN...SNOW OR FOG.

NEZ001>004-019>022-054>056-300700-
NEBRASKA PANHANDLE

CITY           SKY/WX    TMP DP  RH WIND       PRES   REMARKS
SCOTTSBLUFF    CLOUDY    62  58  86 E5        30.09F
6HR MIN TEMP:  60; 6HR MAX TEMP:  68; 6HR PCP:  0.06;

ALLIANCE       CLOUDY    59  57  93 W7        30.08R
6HR MIN TEMP:  59; 6HR MAX TEMP:  74; 6HR PCP:  0.02;

CHADRON        CLEAR     62  58  86 S7        30.03F
6HR MIN TEMP:  62; 6HR MAX TEMP:  76; 6HR PCP:  0.06;

SIDNEY         CLOUDY    63  59  87 S6        30.12S
6HR MIN TEMP:  62; 6HR MAX TEMP:  77; 6HR PCP: TRACE;

$$

NEZ057>060-069>072-079>082-300700-
SOUTHWEST NEBRASKA

CITY           SKY/WX    TMP DP  RH WIND       PRES   REMARKS
NORTH PLATTE   PTCLDY    67  65  93 E6        30.05S
6HR MIN TEMP:  67; 6HR MAX TEMP:  78;

IMPERIAL       CLEAR     67  60  78 CALM      30.05
6HR MIN TEMP:  67; 6HR MAX TEMP:  81; 6HR PCP: TRACE;

LEXINGTON      MOCLDY    68  64  86 SE9       30.06S
MCCOOK         CLOUDY    71  63  75 SE12G21   30.03F
6HR MIN TEMP:  70; 6HR MAX TEMP:  85;

OGALLALA       CLEAR     67  63  86 SE6       30.06S
$$

NEZ005>010-023>029-035>040-094-300700-
NORTH CENTRAL NEBRASKA

CITY           SKY/WX    TMP DP  RH WIND       PRES   REMARKS
VALENTINE      CLOUDY    67  60  78 SE8       30.03S
6HR MIN TEMP:  66; 6HR MAX TEMP:  78;

AINSWORTH      MOCLDY    65  61  85 SE10      30.04F
BROKEN BOW     CLOUDY    65  63  93 SE5       30.06S
6HR MIN TEMP:  65; 6HR MAX TEMP:  75;

O`NEILL        CLOUDY    65  59  79 SE5       30.06R
ORD            CLOUDY    64  59  83 SE3       30.04S
6HR MIN TEMP:  64; 6HR MAX TEMP:  77;

THEDFORD       CLOUDY    66  63  89 SE6       30.06R
$$

NEZ041-046>049-061>064-073>077-083>087-300700-
SOUTH CENTRAL NEBRASKA

CITY           SKY/WX    TMP DP  RH WIND       PRES   REMARKS
GRAND ISLAND   PTCLDY    66  60  81 SE6       30.06F
6HR MIN TEMP:  66; 6HR MAX TEMP:  79;

AURORA         PTCLDY    63  62  95 E3        30.06S
HASTINGS       CLEAR     69  59  70 SE10      30.06F
6HR MIN TEMP:  68; 6HR MAX TEMP:  79;

HEBRON         CLEAR     64  61  90 CALM      30.04F
HOLDREGE       CLEAR     66  63  89 SE6       30.05F
KEARNEY *      CLOUDY    66  63  88 SE6       30.06F
YORK           PTCLDY    64  59  82 CALM      30.05F
$$

NEZ011>018-030>034-042>045-300700-
NORTHEAST NEBRASKA

CITY           SKY/WX    TMP DP  RH WIND       PRES   REMARKS
NORFOLK        CLOUDY    62  58  86 SE6       30.05S
6HR MIN TEMP:  60; 6HR MAX TEMP:  77;

ALBION         CLOUDY    62  59  90 CALM      30.06S
BLAIR          CLOUDY    64  61  88 CALM      30.05R
FREMONT        PTCLDY    65  60  83 SE3       30.05S
TEKAMAH        PTCLDY    63  59  87 CALM      30.03F
6HR MIN TEMP:  62; 6HR MAX TEMP:  79;

WAYNE          MOCLDY    60  59  96 CALM      30.05S
$$

NEZ050>053-065>068-078-088>093-300700-
SOUTHEAST NEBRASKA

CITY           SKY/WX    TMP DP  RH WIND       PRES   REMARKS
LINCOLN        CLEAR     69  63  81 SE5       30.06R
6HR MIN TEMP:  67; 6HR MAX TEMP:  81;

OMAHA EPPLEY   CLOUDY    66  61  84 N5        30.04S
6HR MIN TEMP:  65; 6HR MAX TEMP:  79;

BEATRICE       MOCLDY    66  61  83 E3        30.05F
FALLS CITY     CLEAR     67  64  90 CALM      30.03R
6HR MIN TEMP:  66; 6HR MAX TEMP:  80; 6HR PCP: TRACE;

NEBRASKA CITY  CLEAR     63  63 100 CALM      30.04S
PLATTSMOUTH    PTCLDY    63  61  94 CALM      30.06R
$$

NEZ044-045-051>053-067-300700-
OMAHA AREA

CITY           SKY/WX    TMP DP  RH WIND       PRES   REMARKS
OMAHA EPPLEY   CLOUDY    66  61  84 N5        30.04S
6HR MIN TEMP:  65; 6HR MAX TEMP:  79;

BLAIR          CLOUDY    64  61  88 CALM      30.05R
FREMONT        PTCLDY    65  60  83 SE3       30.05S
MILLARD        CLEAR     66  63  87 CALM      30.04R
OFFUTT AFB     PTCLDY    65  62  90 CALM      30.03S
PLATTSMOUTH    PTCLDY    63  61  94 CALM      30.06R
WAHOO          FAIR      64  62  91 CALM      30.05S
$$




USA.gov is the U.S. government's official web portal to all federal, state and local government web resources and services.